Regional Weather Roundup
Issued by NWS

Home | Current Version | Previous Version | Graphics & Text | Print | Product List | Glossary On
Versions: 1 2 3 4 5 6 7 8 9 10 11 12 13 14 15 16 17 18 19 20 21 22 23 24 25 26 27 28 29 30 31 32 33 34 35 36 37 38 39 40 41 42 43 44 45 46 47 48 49 50
000
ASUS43 KLOT 210108
RWRIL

ILLINOIS REGIONAL WEATHER ROUNDUP
NATIONAL WEATHER SERVICE CHICAGO/ROMEOVILLE IL
700 PM CST MON FEB 20 2017

NOTE: "FAIR" INDICATES FEW OR NO CLOUDS BELOW 12,000 FEET WITH NO
SIGNIFICANT WEATHER AND/OR OBSTRUCTIONS TO VISIBILITY.

* THESE STATIONS ARE NOT UNDER NWS QUALITY CONTROL. THEY ALSO MAY NOT
  REPORT WEATHER SUCH AS PRECIPITATION OR FOG.

ILZ001-002-007-009-015-016-024-210200-
NORTHWEST ILLINOIS

CITY           SKY/WX    TMP DP  RH WIND       PRES   REMARKS
MOLINE         CLOUDY    68  52  56 SW12      29.87R
STERLING*      CLOUDY    63  52  67 SE9       29.88S
SAVANNA*       CLOUDY    62  51  66 W9        29.86R
$$

ILZ003-004-008-010-011-017-018-210200-
NORTH CENTRAL ILLINOIS

CITY           SKY/WX    TMP DP  RH WIND       PRES   REMARKS
ROCKFORD       CLOUDY    63  52  67 S18G26    29.90F
FREEPORT*      CLOUDY    61  51  68 S17       29.87F
ROCHELLE*      CLOUDY    61  52  71 SE17      29.91S
DE KALB*       CLOUDY    61  51  70 SE17      29.93S
PERU*          PTCLDY    63  49  61 SE13      29.92S
$$

ILZ005-006-012>014-019>023-210200-
NORTHEAST ILLINOIS

CITY           SKY/WX    TMP DP  RH WIND       PRES   REMARKS
CHICAGO-OHARE  CLOUDY    63  44  50 SE15G24   29.95F
CHICAGO-MIDWAY CLOUDY    63  43  48 SE15      29.97F
AURORA         CLOUDY    62  49  62 SE15      29.93F
LANSING*       CLOUDY    60  48  63 SE12G21   29.99F
JOLIET*        CLOUDY    62  50  63 SE14      29.95F
WAUKEGAN       CLOUDY    56  42  59 SE20G28   29.93F
DUPAGE AIRPORT CLOUDY    63  46  54 SE16G23   29.92F
KANKAKEE*      MOCLDY    59  48  68 SE9       29.99F
WHEELING       CLOUDY    62  44  51 SE18G29   29.96S
MORRIS*        CLOUDY    62  50  63 SE14      29.93F
ROMEOVILLE*    CLOUDY    60  51  72 SE16      29.95F
NORTHERLY ISL    N/A     46  39  76 SE6         N/A
$$

LMZ740>746-210200-
SOUTHERN LAKE MICHIGAN

STATION/POSITION SKY/WX   TEMP    WIND        PRES    VSBY  WAVE
                          AIR SEA DIR/SP/G                  HT/PER
                          (F)     (DEG/KT/KT) (MB)    (MI)  (FT/S)
HARRISON CRIB              55     160/ 23/ 23   N/A
BURNHAM HARBOR             47     150/  5/  9   N/A
CALUMET HARBOR             62     140/ 10/ 16 1014.7F
BURNS HARBOR               62     140/ 16/ 24 1015.9
MICHIGAN CITY              61     130/ 12/ 15   N/A
$$

ILZ025>027-034>036-040-047-049-050-058-095>099-210200-
WEST-CENTRAL ILLINOIS

CITY           SKY/WX    TMP DP  RH WIND       PRES   REMARKS
QUINCY         LGT RAIN  65  57  75 NW16G22   29.90R
GALESBURG*     CLOUDY    67  53  61 SE8       29.87S
MACOMB*        CLOUDY    68  52  55 S10       29.89S
JACKSONVILLE*  CLOUDY    68  53  58 S14G20    29.91S
PITTSFIELD*    CLOUDY    69  53  57 SE12      29.90S
$$

ILZ028>032-037-038-041>044-048-051>054-059>061-210200-
CENTRAL ILLINOIS

CITY           SKY/WX    TMP DP  RH WIND       PRES   REMARKS
PONTIAC        PTCLDY    63  54  72 SE13      29.95F
BLOOMINGTON    CLOUDY    63  51  65 SE17      29.95F
DECATUR        MOCLDY    64  51  62 SE16      29.95F
PEORIA         MOCLDY    67  51  56 S15       29.92R
LACON*         CLOUDY    65  50  58 S14       29.90S
LINCOLN*       CLOUDY    65  53  63 S12       29.94R
SPRINGFIELD    CLOUDY    68  51  54 S14       29.93R
TAYLORVILLE    PTCLDY    65  51  62 SE14G20   29.95R
$$

ILZ033-039-045-046-055>057-062-063-210200-
EAST-CENTRAL ILLINOIS

CITY           SKY/WX    TMP DP  RH WIND       PRES   REMARKS
CHAMPAIGN      MOCLDY    57  48  72 SE8       29.99S
RANTOUL*       CLOUDY    61  52  71 SE9       29.99S
MATTOON        CLOUDY    63  52  67 S12       29.99S
PARIS*         CLOUDY    55  49  79 SE7       30.03F
$$

ILZ079-100>102-210200-
SOUTHWEST ILLINOIS

CITY           SKY/WX    TMP DP  RH WIND       PRES   REMARKS
ALTON          CLOUDY    66  54  63 SE12G20   29.93F
BELLEVILLE     MOCLDY    66  56  69 E8        29.94S
CAHOKIA*       MOCLDY    68  54  60 S13       29.93S
SPARTA*        CLOUDY    64  55  70 SE6       29.99R
$$

ILZ064>066-069>071-074>076-080>082-084>086-088>090-092>094-210200-
SOUTH-CENTRAL ILLINOIS

CITY           SKY/WX    TMP DP  RH WIND       PRES   REMARKS
CARBONDALE     CLOUDY    64  53  67 SE8       29.99R
CAIRO*         MOCLDY    62  53  72 E3        29.99S
EFFINGHAM*     MOCLDY    64  53  68 SE9       30.01S
MARION         CLOUDY    66  52  59 SE7       30.01R
MT. VERNON     CLOUDY    65  52  62 SE8       30.00S
CENTRALIA*     CLOUDY    66  54  64 SE9       29.98S
SALEM*         CLOUDY    67  51  55 SE6       29.98F
METROPOLIS*    PTCLDY    61  52  71 CALM      30.01S
$$

ILZ067-068-072-073-078-083-087-091-210200-
SOUTHEAST ILLINOIS

CITY           SKY/WX    TMP DP  RH WIND       PRES   REMARKS
LAWRENCEVILLE  PTCLDY    59  48  67 S8        30.04R
FLORA*         MOCLDY    62  52  69 SE9       30.01S
FAIRFIELD*     CLOUDY    62  51  67 SE3       30.01S
HARRISBURG*    CLOUDY    61  54  78 SE7       30.02S
ROBINSON*      PTCLDY    58  48  69 SE6       30.04S
CARMI*         PTCLDY    58  52  79 SE8       30.02S
$$

ABBREVIATIONS USED IN REMARKS
   TC - TEMPERATURE IN CELSIUS
  WCI - WIND CHILL INDEX
   HX - HEAT INDEX
  VSB - VISIBILITY
$$





USA.gov is the U.S. government's official web portal to all federal, state and local government web resources and services.